Weather in Dinskaya

Russia / Krasnodar Krai     45°12′47″N   39°13′44″E
temp.,
°C
wind,
m/s
gust,
m/s
humid.,
%
clouds,
%
prec.,
mm/h
press.,
hPa
HPBL,
m
20 june, sun
sun2000:00+23ene714491 0.0 1010538
03:00+21e51154100 0.0 1010431
06:00+19ene376973 0.0 1011235
09:00+23ene33656 0.0 1011557
12:00+27nne33590 0.0 1011912
15:00+29n34575 0.0 10111272
18:00+28ene34656 0.0 10101115
21:00+23ene22810 0.0 101015
21 june, mon
mon2100:00+21ese33870 0.0 101031
03:00+20se22920 0.0 101024
06:00+21e23894 0.0 101088
09:00+26ene34660 0.0 1010517
12:00+29ene44548 0.0 1009889
15:00+30ene44520 0.0 10081260
18:00+29e356597 0.0 1008224
21:00+25e39780 0.0 1008174
22 june, tue
tue2200:00+22e38794 0.0 1009155
03:00+20e36600 0.0 101085
06:00+19e36690 0.1 1010114
09:00+24e33510 0.1 1010399
12:00+28ne32440 0.0 1010852
15:00+30ne22420 0.0 10101165
18:00+30nnw004736 0.0 1009708
21:00+24sw0063100 0.1 101011
23 june, wed
wed2300:00+23nne2472100 0.2 101167
03:00+21ene2278100 0.3 101220
06:00+22n118012 0.0 101252
09:00+27wnw33624 0.0 1012589
12:00+31n33474 0.0 10121292
15:00+31ne44440 0.0 10111419
18:00+31ne134892 0.0 10111296
21:00+25wsw11620 0.0 101111
24 june, thu
thu2400:00+21wsw35861 0.0 101284
03:00+20wsw239286 0.0 101353
06:00+21sw3591100 0.8 1014204
09:00+23wnw3483100 1.8 1015333
12:00+26wnw2369100 0.1 1014823
15:00+30ene454280 0.1 10131799
18:00+30ene254881 0.0 10131358
21:00+24nnw22570 0.0 101311